Time,TemperatureF,DewpointF,PressureIn,WindDirection,WindDirectionDegrees,WindSpeedMPH,WindSpeedGustMPH,Humidity,HourlyPrecipIn,Conditions,Clouds,dailyrainin,SoftwareType,DateUTC
2013-05-08 00:00:00,50.2,49.0,30.05,ENE,65,0.0,0.0,95,0.00,,,0.00,weatherlink.com 1.10,2013-05-08 04:00:00,
2013-05-08 00:15:00,49.7,48.0,30.06,ENE,65,0.0,0.0,95,0.00,,,0.00,weatherlink.com 1.10,2013-05-08 04:15:00,
2013-05-08 00:30:00,49.4,48.0,30.06,ENE,65,0.0,0.0,96,0.00,,,0.00,weatherlink.com 1.10,2013-05-08 04:30:00,
2013-05-08 00:45:00,49.6,49.0,30.06,NE,36,0.0,0.0,96,0.00,,,0.00,weatherlink.com 1.10,2013-05-08 04:45:00,
2013-05-08 01:00:00,49.6,48.0,30.05,NE,36,0.0,0.0,95,0.00,,,0.00,weatherlink.com 1.10,2013-05-08 05:00:00,
2013-05-08 01:15:00,49.4,48.0,30.05,NE,36,0.0,0.0,95,0.00,,,0.00,weatherlink.com 1.10,2013-05-08 05:15:00,
2013-05-08 01:30:00,49.3,48.0,30.05,NE,35,0.0,0.0,96,0.00,,,0.00,weatherlink.com 1.10,2013-05-08 05:30:00,
2013-05-08 01:45:00,49.3,48.0,30.05,NE,36,0.0,0.0,96,0.00,,,0.00,weatherlink.com 1.10,2013-05-08 05:45:00,
2013-05-08 02:00:00,49.5,48.0,30.04,NE,35,0.0,0.0,96,0.00,,,0.00,weatherlink.com 1.10,2013-05-08 06:00:00,
2013-05-08 02:15:00,49.3,48.0,30.04,NE,36,0.0,0.0,96,0.00,,,0.00,weatherlink.com 1.10,2013-05-08 06:15:00,
2013-05-08 02:30:00,49.3,48.0,30.04,NE,35,0.0,0.0,96,0.00,,,0.00,weatherlink.com 1.10,2013-05-08 06:30:00,
2013-05-08 02:45:00,48.9,48.0,30.03,WNW,293,0.0,1.0,96,0.00,,,0.00,weatherlink.com 1.10,2013-05-08 06:45:00,
2013-05-08 03:00:00,48.2,47.0,30.03,WNW,291,0.0,1.0,96,0.00,,,0.00,weatherlink.com 1.10,2013-05-08 07:00:00,
2013-05-08 03:15:00,47.6,47.0,30.03,West,276,0.0,1.0,96,0.00,,,0.00,weatherlink.com 1.10,2013-05-08 07:15:00,
2013-05-08 03:30:00,47.3,46.0,30.03,West,266,0.0,1.0,96,0.00,,,0.00,weatherlink.com 1.10,2013-05-08 07:30:00,
2013-05-08 03:45:00,47.5,47.0,30.03,West,261,0.0,1.0,97,0.00,,,0.00,weatherlink.com 1.10,2013-05-08 07:45:00,
2013-05-08 04:00:00,47.2,46.0,30.03,West,261,0.0,1.0,97,0.00,,,0.00,weatherlink.com 1.10,2013-05-08 08:00:00,
2013-05-08 05:35:00,45.6,45.0,30.05,WNW,287,0.0,0.0,97,0.00,,,0.00,weatherlink.com 1.10,2013-05-08 09:35:00,
2013-05-08 05:46:00,45.6,45.0,30.05,WNW,283,0.0,1.0,97,0.00,,,0.00,weatherlink.com 1.10,2013-05-08 09:46:00,
2013-05-08 06:01:00,45.3,45.0,30.06,WNW,282,0.0,0.0,97,0.00,,,0.00,weatherlink.com 1.10,2013-05-08 10:01:00,
2013-05-08 06:16:00,45.1,44.0,30.06,WNW,282,0.0,0.0,97,0.00,,,0.00,weatherlink.com 1.10,2013-05-08 10:16:00,
2013-05-08 06:31:00,45.0,45.0,30.06,WNW,283,0.0,1.0,98,0.00,,,0.00,weatherlink.com 1.10,2013-05-08 10:31:00,
2013-05-08 06:46:00,44.6,44.0,30.07,WNW,282,0.0,0.0,97,0.00,,,0.00,weatherlink.com 1.10,2013-05-08 10:46:00,
2013-05-08 07:01:00,44.4,44.0,30.07,West,280,0.0,0.0,98,0.00,,,0.00,weatherlink.com 1.10,2013-05-08 11:01:00,
2013-05-08 07:16:00,44.8,44.0,30.08,West,267,0.0,1.0,98,0.00,,,0.00,weatherlink.com 1.10,2013-05-08 11:16:00,
2013-05-08 07:31:00,45.3,45.0,30.08,West,260,0.0,0.0,98,0.00,,,0.00,weatherlink.com 1.10,2013-05-08 11:31:00,
2013-05-08 07:46:00,46.5,46.0,30.09,South,177,0.0,1.0,98,0.00,,,0.00,weatherlink.com 1.10,2013-05-08 11:46:00,
2013-05-08 08:01:00,47.7,47.0,30.09,South,177,0.0,0.0,96,0.00,,,0.00,weatherlink.com 1.10,2013-05-08 12:01:00,
2013-05-08 08:16:00,50.5,49.0,30.09,South,177,0.0,1.0,93,0.00,,,0.00,weatherlink.com 1.10,2013-05-08 12:16:00,
2013-05-08 08:31:00,52.6,49.0,30.09,ESE,121,0.0,2.0,88,0.00,,,0.00,weatherlink.com 1.10,2013-05-08 12:31:00,
2013-05-08 08:46:00,54.9,51.0,30.09,ESE,120,0.0,2.0,85,0.00,,,0.00,weatherlink.com 1.10,2013-05-08 12:46:00,
2013-05-08 09:01:00,57.2,52.0,30.09,East,94,0.0,2.0,83,0.00,,,0.00,weatherlink.com 1.10,2013-05-08 13:01:00,
2013-05-08 09:16:00,60.3,53.0,30.08,ENE,68,1.0,1.0,77,0.00,,,0.00,weatherlink.com 1.10,2013-05-08 13:16:00,
2013-05-08 09:32:00,63.9,57.0,30.09,SE,146,0.0,2.0,77,0.00,,,0.00,weatherlink.com 1.10,2013-05-08 13:32:00,
2013-05-08 09:47:00,63.3,53.0,30.09,ESE,121,1.0,2.0,69,0.00,,,0.00,weatherlink.com 1.10,2013-05-08 13:47:00,
2013-05-08 10:02:00,62.2,53.0,30.09,SSE,149,1.0,2.0,72,0.00,,,0.00,weatherlink.com 1.10,2013-05-08 14:02:00,
2013-05-08 10:17:00,60.3,53.0,30.09,NE,49,0.0,2.0,78,0.00,,,0.00,weatherlink.com 1.10,2013-05-08 14:17:00,
2013-05-08 10:32:00,59.1,53.0,30.10,East,92,0.0,3.0,80,0.00,,,0.00,weatherlink.com 1.10,2013-05-08 14:32:00,
2013-05-08 10:47:00,58.6,52.0,30.10,ESE,113,0.0,3.0,80,0.00,,,0.00,weatherlink.com 1.10,2013-05-08 14:47:00,
2013-05-08 11:02:00,58.4,53.0,30.11,SE,127,0.0,0.0,83,0.00,,,0.00,weatherlink.com 1.10,2013-05-08 15:02:00,
2013-05-08 11:17:00,59.4,54.0,30.11,North,1,0.0,1.0,81,0.00,,,0.00,weatherlink.com 1.10,2013-05-08 15:17:00,
2013-05-08 11:32:00,62.2,54.0,30.11,SE,124,0.0,2.0,75,0.00,,,0.00,weatherlink.com 1.10,2013-05-08 15:32:00,
2013-05-08 11:47:00,63.7,54.0,30.10,WNW,296,1.0,6.0,71,0.00,,,0.00,weatherlink.com 1.10,2013-05-08 15:47:00,
2013-05-08 12:02:00,63.3,54.0,30.11,WSW,256,1.0,3.0,71,0.00,,,0.00,weatherlink.com 1.10,2013-05-08 16:02:00,
2013-05-08 12:17:00,63.1,53.0,30.11,WNW,294,0.0,3.0,70,0.00,,,0.00,weatherlink.com 1.10,2013-05-08 16:17:00,
2013-05-08 12:32:00,63.7,53.0,30.10,WNW,293,0.0,6.0,69,0.00,,,0.00,weatherlink.com 1.10,2013-05-08 16:32:00,
2013-05-08 12:47:00,66.6,54.0,30.09,West,279,3.0,5.0,64,0.00,,,0.00,weatherlink.com 1.10,2013-05-08 16:47:00,
2013-05-08 13:02:00,68.4,52.0,30.09,NW,312,6.0,7.0,57,0.00,,,0.00,weatherlink.com 1.10,2013-05-08 17:02:00,
2013-05-08 13:17:00,69.0,52.0,30.08,WNW,290,2.0,8.0,55,0.00,,,0.00,weatherlink.com 1.10,2013-05-08 17:17:00,
2013-05-08 13:32:00,67.5,50.0,30.09,West,275,4.0,9.0,54,0.00,,,0.00,weatherlink.com 1.10,2013-05-08 17:32:00,
2013-05-08 13:47:00,67.7,51.0,30.09,WSW,252,1.0,8.0,56,0.00,,,0.00,weatherlink.com 1.10,2013-05-08 17:47:00,
2013-05-08 14:17:00,67.5,51.0,30.09,WNW,297,3.0,6.0,56,0.00,,,0.00,weatherlink.com 1.10,2013-05-08 18:17:00,
2013-05-08 14:32:00,67.1,50.0,30.09,WSW,242,3.0,5.0,55,0.00,,,0.00,weatherlink.com 1.10,2013-05-08 18:32:00,
2013-05-08 14:47:00,67.8,54.0,30.09,NE,48,0.0,3.0,61,0.00,,,0.00,weatherlink.com 1.10,2013-05-08 18:47:00,
2013-05-08 15:02:00,67.5,53.0,30.09,SE,124,2.0,5.0,60,0.00,,,0.00,weatherlink.com 1.10,2013-05-08 19:02:00,
2013-05-08 15:17:00,66.7,53.0,30.09,North,11,1.0,4.0,61,0.00,,,0.00,weatherlink.com 1.10,2013-05-08 19:17:00,
2013-05-08 15:32:00,67.4,51.0,30.09,NNW,335,2.0,4.0,55,0.00,,,0.00,weatherlink.com 1.10,2013-05-08 19:32:00,
2013-05-08 15:47:00,68.0,52.0,30.09,West,273,1.0,7.0,56,0.00,,,0.00,weatherlink.com 1.10,2013-05-08 19:47:00,
2013-05-08 16:02:00,67.7,51.0,30.09,NW,316,2.0,7.0,55,0.00,,,0.00,weatherlink.com 1.10,2013-05-08 20:02:00,
2013-05-08 16:17:00,67.1,51.0,30.08,WNW,288,2.0,7.0,56,0.00,,,0.00,weatherlink.com 1.10,2013-05-08 20:17:00,
2013-05-08 16:32:00,67.6,53.0,30.08,West,266,1.0,4.0,59,0.00,,,0.00,weatherlink.com 1.10,2013-05-08 20:32:00,
2013-05-08 16:47:00,67.8,52.0,30.08,WNW,299,2.0,8.0,57,0.00,,,0.00,weatherlink.com 1.10,2013-05-08 20:47:00,
2013-05-08 17:02:00,67.0,52.0,30.09,NW,323,0.0,6.0,59,0.00,,,0.00,weatherlink.com 1.10,2013-05-08 21:02:00,
2013-05-08 17:17:00,68.1,52.0,30.08,NNE,19,3.0,9.0,57,0.00,,,0.00,weatherlink.com 1.10,2013-05-08 21:17:00,
2013-05-08 17:32:00,67.2,52.0,30.09,SW,229,2.0,7.0,59,0.00,,,0.00,weatherlink.com 1.10,2013-05-08 21:32:00,
2013-05-08 17:47:00,65.8,51.0,30.09,WSW,242,2.0,7.0,60,0.00,,,0.00,weatherlink.com 1.10,2013-05-08 21:47:00,
2013-05-08 18:02:00,65.6,52.0,30.09,ENE,77,0.0,6.0,62,0.00,,,0.00,weatherlink.com 1.10,2013-05-08 22:02:00,
2013-05-08 18:17:00,66.6,52.0,30.09,West,274,0.0,3.0,59,0.00,,,0.00,weatherlink.com 1.10,2013-05-08 22:17:00,
2013-05-08 18:32:00,66.4,52.0,30.09,East,79,1.0,2.0,60,0.00,,,0.00,weatherlink.com 1.10,2013-05-08 22:32:00,
2013-05-08 18:47:00,67.3,51.0,30.09,WSW,252,0.0,3.0,56,0.00,,,0.00,weatherlink.com 1.10,2013-05-08 22:47:00,
2013-05-08 19:02:00,67.5,52.0,30.09,SE,135,0.0,2.0,57,0.00,,,0.00,weatherlink.com 1.10,2013-05-08 23:02:00,
2013-05-08 19:17:00,66.9,53.0,30.09,NNE,32,1.0,2.0,62,0.00,,,0.00,weatherlink.com 1.10,2013-05-08 23:17:00,
2013-05-08 19:33:00,66.0,52.0,30.09,ENE,65,0.0,1.0,61,0.00,,,0.00,weatherlink.com 1.10,2013-05-08 23:33:00,
2013-05-08 19:47:00,64.6,54.0,30.10,ENE,64,0.0,1.0,68,0.00,,,0.00,weatherlink.com 1.10,2013-05-08 23:47:00,
2013-05-08 20:02:00,63.0,53.0,30.11,NW,307,0.0,1.0,70,0.00,,,0.00,weatherlink.com 1.10,2013-05-09 00:02:00,
2013-05-08 20:17:00,61.6,54.0,30.12,NW,307,0.0,0.0,75,0.00,,,0.00,weatherlink.com 1.10,2013-05-09 00:17:00,
2013-05-08 20:32:00,60.0,53.0,30.12,NW,308,0.0,0.0,77,0.00,,,0.00,weatherlink.com 1.10,2013-05-09 00:32:00,
2013-05-08 20:47:00,59.0,53.0,30.13,NW,307,0.0,1.0,81,0.00,,,0.00,weatherlink.com 1.10,2013-05-09 00:47:00,
2013-05-08 21:02:00,57.8,53.0,30.13,West,276,0.0,1.0,84,0.00,,,0.00,weatherlink.com 1.10,2013-05-09 01:02:00,
2013-05-08 21:17:00,56.8,53.0,30.13,West,276,0.0,1.0,86,0.00,,,0.00,weatherlink.com 1.10,2013-05-09 01:17:00,
2013-05-08 21:32:00,55.8,53.0,30.14,WNW,302,0.0,1.0,89,0.00,,,0.00,weatherlink.com 1.10,2013-05-09 01:32:00,
2013-05-08 21:47:00,55.3,52.0,30.15,WNW,302,0.0,0.0,89,0.00,,,0.00,weatherlink.com 1.10,2013-05-09 01:47:00,
2013-05-08 22:02:00,54.8,52.0,30.15,WNW,302,0.0,0.0,90,0.00,,,0.00,weatherlink.com 1.10,2013-05-09 02:02:00,
2013-05-08 22:17:00,54.5,52.0,30.15,NNE,16,0.0,0.0,91,0.00,,,0.00,weatherlink.com 1.10,2013-05-09 02:17:00,
2013-05-08 22:33:00,54.1,52.0,30.16,NNE,16,0.0,0.0,92,0.00,,,0.00,weatherlink.com 1.10,2013-05-09 02:33:00,
2013-05-08 22:48:00,53.9,52.0,30.16,NNE,16,0.0,0.0,93,0.00,,,0.00,weatherlink.com 1.10,2013-05-09 02:48:00,
2013-05-08 23:03:00,53.9,52.0,30.16,NNE,21,0.0,1.0,93,0.00,,,0.00,weatherlink.com 1.10,2013-05-09 03:03:00,
2013-05-08 23:18:00,53.4,52.0,30.16,NNE,21,0.0,0.0,93,0.00,,,0.00,weatherlink.com 1.10,2013-05-09 03:18:00,
2013-05-08 23:33:00,52.6,51.0,30.16,WNW,303,0.0,0.0,93,0.00,,,0.00,weatherlink.com 1.10,2013-05-09 03:33:00,
2013-05-08 23:48:00,52.2,51.0,30.16,WNW,302,0.0,0.0,94,0.00,,,0.00,weatherlink.com 1.10,2013-05-09 03:48:00,